User: anonymous   Login
Location: Betpouey
(42.8833°N, 0.0333°E)
Time: 11:43:03
(UTC+00:00)
Language:

SL-08 R/B - Orbit

View from above orbital plane
View from above orbital plane
View from above satellite
View from above satellite

Ground track
Ground track

The orbit data is extracted from the following two-line orbital elements,

1 27819U 03023B   21061.47425534  .00000044  00000-0  31050-4 0  9990
2 27819  82.9449 103.5587 0045006 248.4298 225.8150 13.74236697889743
Epoch (UTC): 02 March 2021 11:22:55
Eccentricity: 0.0045006
inclination: 82.9449°
perigee height: 951 km
apogee height: 1017 km
right ascension of ascending node: 103.5587°
argument of perigee: 248.4298°
revolutions per day: 13.74236697
mean anomaly at epoch: 225.8150°
orbit number at epoch: 88974

The dashed part of the orbit path shows where the satellite is in the earth's shadow,  

DLR